TimeEST,TemperatureF,Dew PointF,Humidity,Sea Level PressureIn,VisibilityMPH,Wind Direction,Wind SpeedMPH,Gust SpeedMPH,PrecipitationIn,Events,Conditions,WindDirDegrees,DateUTC
12:15 AM,37.4,32.0,81,30.21,10.0,Calm,Calm,-,N/A,,Clear,0,2012-11-27 05:15:00
12:35 AM,35.6,32.0,87,30.20,10.0,Calm,Calm,-,N/A,,Clear,0,2012-11-27 05:35:00
12:55 AM,37.4,32.0,81,30.20,10.0,Calm,Calm,-,N/A,,Clear,0,2012-11-27 05:55:00
1:15 AM,37.4,33.8,87,30.19,10.0,Calm,Calm,-,N/A,,Clear,0,2012-11-27 06:15:00
1:35 AM,37.4,32.0,81,30.19,10.0,Calm,Calm,-,N/A,,Clear,0,2012-11-27 06:35:00
1:55 AM,39.2,32.0,75,30.19,10.0,Calm,Calm,-,N/A,,Clear,0,2012-11-27 06:55:00
2:15 AM,39.2,32.0,75,30.19,10.0,Calm,Calm,-,N/A,,Clear,0,2012-11-27 07:15:00
2:35 AM,41.0,32.0,70,30.19,10.0,Calm,Calm,-,N/A,,Mostly Cloudy,0,2012-11-27 07:35:00
2:55 AM,41.0,33.8,76,30.19,10.0,Calm,Calm,-,N/A,,Mostly Cloudy,0,2012-11-27 07:55:00
3:15 AM,42.8,35.6,76,30.19,10.0,Calm,Calm,-,N/A,,Scattered Clouds,0,2012-11-27 08:15:00
3:35 AM,46.4,33.8,62,30.18,10.0,SW,3.5,-,N/A,,Partly Cloudy,220,2012-11-27 08:35:00
3:55 AM,44.6,35.6,71,30.18,10.0,Calm,Calm,-,N/A,,Scattered Clouds,0,2012-11-27 08:55:00
4:15 AM,46.4,35.6,66,30.18,10.0,Calm,Calm,-,N/A,,Mostly Cloudy,0,2012-11-27 09:15:00
4:35 AM,46.4,35.6,66,30.18,10.0,Calm,Calm,-,N/A,,Mostly Cloudy,0,2012-11-27 09:35:00
4:55 AM,46.4,33.8,62,30.18,10.0,South,3.5,-,N/A,,Partly Cloudy,190,2012-11-27 09:55:00
5:15 AM,46.4,35.6,66,30.18,10.0,Calm,Calm,-,N/A,,Partly Cloudy,0,2012-11-27 10:15:00
5:35 AM,46.4,35.6,66,30.18,10.0,Calm,Calm,-,N/A,,Partly Cloudy,0,2012-11-27 10:35:00
5:55 AM,46.4,33.8,62,30.18,10.0,Calm,Calm,-,N/A,,Partly Cloudy,0,2012-11-27 10:55:00
6:15 AM,46.4,33.8,62,30.19,10.0,Calm,Calm,-,N/A,,Partly Cloudy,0,2012-11-27 11:15:00
6:35 AM,44.6,35.6,71,30.19,10.0,Calm,Calm,-,N/A,,Mostly Cloudy,0,2012-11-27 11:35:00
6:55 AM,44.6,35.6,71,30.18,10.0,Calm,Calm,-,N/A,,Scattered Clouds,0,2012-11-27 11:55:00
7:15 AM,44.6,37.4,76,30.19,10.0,Calm,Calm,-,N/A,,Clear,0,2012-11-27 12:15:00
7:35 AM,44.6,35.6,71,30.19,10.0,Calm,Calm,-,N/A,,Partly Cloudy,0,2012-11-27 12:35:00
7:55 AM,46.4,37.4,71,30.18,10.0,Calm,Calm,-,N/A,,Partly Cloudy,0,2012-11-27 12:55:00
8:15 AM,48.2,37.4,66,30.18,10.0,Calm,Calm,-,N/A,,Scattered Clouds,0,2012-11-27 13:15:00
8:35 AM,48.2,35.6,62,30.19,10.0,Calm,Calm,-,N/A,,Scattered Clouds,0,2012-11-27 13:35:00
8:55 AM,50.0,37.4,62,30.20,10.0,Calm,Calm,-,N/A,,Partly Cloudy,0,2012-11-27 13:55:00
9:15 AM,51.8,35.6,54,30.21,10.0,SW,3.5,-,N/A,,Partly Cloudy,230,2012-11-27 14:15:00
9:35 AM,53.6,35.6,51,30.20,10.0,SW,3.5,-,N/A,,Partly Cloudy,230,2012-11-27 14:35:00
9:55 AM,55.4,35.6,47,30.19,10.0,SW,5.8,-,N/A,,Partly Cloudy,230,2012-11-27 14:55:00
10:15 AM,57.2,37.4,48,30.20,10.0,SW,6.9,-,N/A,,Partly Cloudy,230,2012-11-27 15:15:00
10:35 AM,57.2,35.6,44,30.20,10.0,West,3.5,-,N/A,,Scattered Clouds,260,2012-11-27 15:35:00
10:55 AM,57.2,37.4,48,30.20,10.0,WSW,3.5,-,N/A,,Scattered Clouds,250,2012-11-27 15:55:00
11:15 AM,53.6,44.6,72,30.20,5.0,West,4.6,-,0.01,Rain,Light Rain,270,2012-11-27 16:15:00
11:35 AM,51.8,44.6,76,30.19,10.0,West,3.5,-,0.01,Rain,Light Rain,270,2012-11-27 16:35:00
11:55 AM,50.0,44.6,82,30.19,5.0,West,4.6,-,0.03,Rain,Light Rain,270,2012-11-27 16:55:00
12:15 PM,50.0,46.4,87,30.18,10.0,West,3.5,-,N/A,Rain,Light Rain,280,2012-11-27 17:15:00
12:35 PM,50.0,48.2,94,30.17,6.0,WNW,5.8,-,0.03,Rain,Rain,290,2012-11-27 17:35:00
12:55 PM,50.0,48.2,94,30.16,5.0,West,3.5,-,0.05,Rain,Light Rain,270,2012-11-27 17:55:00
1:15 PM,50.0,48.2,94,30.14,6.0,Calm,Calm,-,0.01,Rain,Light Rain,0,2012-11-27 18:15:00
1:35 PM,50.0,48.2,94,30.14,9.0,Calm,Calm,-,0.02,Rain,Light Rain,0,2012-11-27 18:35:00
1:55 PM,50.0,50.0,100,30.15,10.0,Calm,Calm,-,0.02,,Scattered Clouds,0,2012-11-27 18:55:00
2:15 PM,50.0,50.0,100,30.13,10.0,Calm,Calm,-,N/A,Rain,Light Rain,0,2012-11-27 19:15:00
2:35 PM,50.0,50.0,100,30.13,9.0,Calm,Calm,-,N/A,Rain,Light Rain,0,2012-11-27 19:35:00
2:55 PM,51.8,51.8,100,30.12,8.0,SSE,5.8,-,N/A,,Mostly Cloudy,160,2012-11-27 19:55:00
3:15 PM,51.8,51.8,100,30.13,10.0,SSW,3.5,-,N/A,,Mostly Cloudy,200,2012-11-27 20:15:00
3:35 PM,51.8,51.8,100,30.12,10.0,Calm,Calm,-,N/A,,Scattered Clouds,0,2012-11-27 20:35:00
3:55 PM,51.8,50.0,94,30.12,10.0,Calm,Calm,-,N/A,,Mostly Cloudy,0,2012-11-27 20:55:00
4:15 PM,51.8,50.0,94,30.12,10.0,Calm,Calm,-,N/A,,Scattered Clouds,0,2012-11-27 21:15:00
4:35 PM,51.8,51.8,100,30.13,10.0,Calm,Calm,-,N/A,Rain,Light Rain,0,2012-11-27 21:35:00
4:55 PM,51.8,51.8,100,30.13,6.0,Calm,Calm,-,N/A,Rain,Light Rain,0,2012-11-27 21:55:00
5:15 PM,50.0,50.0,100,30.13,8.0,Calm,Calm,-,N/A,Rain,Light Rain,0,2012-11-27 22:15:00
5:35 PM,50.0,50.0,100,30.13,7.0,Calm,Calm,-,N/A,,Clear,0,2012-11-27 22:35:00
5:55 PM,50.0,50.0,100,30.15,6.0,Calm,Calm,-,N/A,,Clear,0,2012-11-27 22:55:00
6:15 PM,50.0,50.0,100,30.16,5.0,Calm,Calm,-,N/A,,Clear,0,2012-11-27 23:15:00
7:15 PM,50.0,50.0,100,30.17,3.0,Calm,Calm,-,N/A,Rain,Light Rain,0,2012-11-28 00:15:00
7:35 PM,50.0,50.0,100,30.18,1.5,Calm,Calm,-,0.01,Rain,Light Rain,0,2012-11-28 00:35:00
7:55 PM,50.0,50.0,100,30.18,2.5,Calm,Calm,-,0.02,,Overcast,0,2012-11-28 00:55:00
8:15 PM,50.0,50.0,100,30.18,3.0,Calm,Calm,-,N/A,,Overcast,0,2012-11-28 01:15:00
8:35 PM,50.0,50.0,100,30.19,3.0,Calm,Calm,-,N/A,,Overcast,0,2012-11-28 01:35:00
8:55 PM,50.0,50.0,100,30.18,2.5,Calm,Calm,-,N/A,,Overcast,0,2012-11-28 01:55:00
9:15 PM,50.0,50.0,100,30.18,2.5,Calm,Calm,-,N/A,,Overcast,0,2012-11-28 02:15:00
9:35 PM,50.0,50.0,100,30.18,3.0,Calm,Calm,-,N/A,,Overcast,0,2012-11-28 02:35:00
9:55 PM,50.0,50.0,100,30.19,3.0,Calm,Calm,-,N/A,,Overcast,0,2012-11-28 02:55:00
10:15 PM,50.0,50.0,100,30.19,2.5,Calm,Calm,-,N/A,,Overcast,0,2012-11-28 03:15:00
10:35 PM,50.0,50.0,100,30.20,2.5,North,3.5,-,N/A,,Overcast,10,2012-11-28 03:35:00
10:55 PM,50.0,50.0,100,30.19,3.0,North,3.5,-,N/A,,Overcast,10,2012-11-28 03:55:00
11:15 PM,50.0,50.0,100,30.19,2.5,NNE,5.8,-,N/A,,Overcast,30,2012-11-28 04:15:00
11:55 PM,50.0,50.0,100,30.21,3.0,NE,5.8,-,N/A,,Overcast,40,2012-11-28 04:55:00